When you browse on this site, cookies collect data to enhance your experience and personalize the content and advertising you see.
Visit our Privacy Policy to learn more. By continuing to use the site, you agree to this use of cookies and data.
  • în România
  • Lista ţărilor
  • Pe 7 zile
  • Temperatura apei
  • Hartă satelitară
  • Meteo pe hartă
  • Widget-uri
  • user-avatar
    Intrare

    Meteo pe oră la Shahabad

    Astăzi, 26 Aprilie, Vineri

    Timp Temperatura Precipitaţii Vânt Presiune Umiditate
    00:00 +34°C° 0 mm 1 m/s 738 mmHg 20%
    01:00 +33°C° 0 mm 1 m/s 738 mmHg 20%
    02:00 +33°C° 0 mm 1 m/s 738 mmHg 20%
    03:00 +32°C° 0 mm 1 m/s 738 mmHg 21%
    04:00 +32°C° 0 mm 1 m/s 738 mmHg 22%
    05:00 +31°C° 0 mm 2 m/s 738 mmHg 23%
    06:00 +34°C° 0 mm 2 m/s 738 mmHg 21%
    07:00 +36°C° 0 mm 2 m/s 738 mmHg 19%
    08:00 +37°C° 0 mm 2 m/s 739 mmHg 17%
    09:00 +39°C° 0 mm 2 m/s 739 mmHg 15%
    10:00 +42°C° 0 mm 3 m/s 739 mmHg 13%
    11:00 +45°C° 0 mm 4 m/s 739 mmHg 11%
    12:00 +46°C° 0 mm 5 m/s 738 mmHg 10%
    13:00 +47°C° 0 mm 5 m/s 737 mmHg 9%
    14:00 +48°C° 0 mm 6 m/s 737 mmHg 7%
    15:00 +47°C° 0 mm 6 m/s 736 mmHg 8%
    16:00 +47°C° 0 mm 6 m/s 736 mmHg 8%
    17:00 +46°C° 0 mm 6 m/s 736 mmHg 9%
    18:00 +43°C° 0 mm 5 m/s 736 mmHg 10%
    19:00 +42°C° 0 mm 4 m/s 736 mmHg 11%
    20:00 +39°C° 0 mm 3 m/s 737 mmHg 13%
    21:00 +38°C° 0 mm 3 m/s 737 mmHg 13%
    22:00 +37°C° 0 mm 4 m/s 737 mmHg 14%
    23:00 +36°C° 0 mm 4 m/s 738 mmHg 14%

    Mâine, 27 Aprilie, Sâmbătă

    Timp Temperatura Precipitaţii Vânt Presiune Umiditate
    00:00 +35°C° 0 mm 4 m/s 737 mmHg 15%
    01:00 +35°C° 0 mm 4 m/s 737 mmHg 17%
    02:00 +34°C° 0 mm 3 m/s 737 mmHg 18%
    03:00 +33°C° 0 mm 3 m/s 737 mmHg 19%
    04:00 +33°C° 0 mm 3 m/s 737 mmHg 20%
    05:00 +31°C° 0 mm 3 m/s 737 mmHg 22%
    06:00 +34°C° 0 mm 4 m/s 737 mmHg 19%
    07:00 +37°C° 0 mm 5 m/s 738 mmHg 15%
    08:00 +40°C° 0 mm 6 m/s 738 mmHg 12%
    09:00 +42°C° 0 mm 6 m/s 738 mmHg 10%
    10:00 +45°C° 0 mm 7 m/s 738 mmHg 8%
    11:00 +48°C° 0 mm 8 m/s 738 mmHg 6%
    12:00 +48°C° 0 mm 8 m/s 737 mmHg 5%
    13:00 +49°C° 0 mm 8 m/s 737 mmHg 5%
    14:00 +50°C° 0 mm 8 m/s 736 mmHg 4%
    15:00 +49°C° 0 mm 8 m/s 736 mmHg 5%
    16:00 +48°C° 0 mm 8 m/s 735 mmHg 6%
    17:00 +48°C° 0 mm 8 m/s 735 mmHg 7%
    18:00 +45°C° 0 mm 7 m/s 735 mmHg 8%
    19:00 +42°C° 0 mm 5 m/s 736 mmHg 9%
    20:00 +40°C° 0 mm 4 m/s 736 mmHg 9%
    21:00 +38°C° 0 mm 4 m/s 736 mmHg 10%
    22:00 +37°C° 0 mm 4 m/s 737 mmHg 10%
    23:00 +37°C° 0 mm 4 m/s 737 mmHg 10%

    Poimâine, 28 Aprilie, Duminică

    Timp Temperatura Precipitaţii Vânt Presiune Umiditate
    00:00 +36°C° 0 mm 4 m/s 736 mmHg 10%
    01:00 +35°C° 0 mm 4 m/s 736 mmHg 11%
    02:00 +34°C° 0 mm 4 m/s 736 mmHg 11%
    03:00 +33°C° 0 mm 3 m/s 736 mmHg 12%
    04:00 +33°C° 0 mm 3 m/s 736 mmHg 12%
    05:00 +31°C° 0 mm 3 m/s 736 mmHg 12%
    06:00 +34°C° 0 mm 4 m/s 736 mmHg 11%
    07:00 +37°C° 0 mm 4 m/s 737 mmHg 9%
    08:00 +40°C° 0 mm 5 m/s 737 mmHg 8%
    09:00 +42°C° 0 mm 6 m/s 737 mmHg 7%
    10:00 +45°C° 0 mm 7 m/s 737 mmHg 6%
    11:00 +48°C° 0 mm 8 m/s 737 mmHg 6%
    12:00 +49°C° 0 mm 8 m/s 736 mmHg 5%
    13:00 +50°C° 0 mm 8 m/s 736 mmHg 5%
    14:00 +50°C° 0 mm 7 m/s 735 mmHg 4%
    15:00 +50°C° 0 mm 7 m/s 734 mmHg 4%
    16:00 +49°C° 0 mm 7 m/s 734 mmHg 4%
    17:00 +47°C° 0 mm 7 m/s 734 mmHg 4%
    18:00 +45°C° 0 mm 6 m/s 734 mmHg 5%
    19:00 +42°C° 0 mm 5 m/s 735 mmHg 5%
    20:00 +40°C° 0 mm 4 m/s 735 mmHg 6%
    21:00 +38°C° 0 mm 4 m/s 735 mmHg 6%
    22:00 +38°C° 0 mm 4 m/s 736 mmHg 7%
    23:00 +37°C° 0 mm 4 m/s 736 mmHg 7%

    29 Aprilie, Luni

    Timp Temperatura Precipitaţii Vânt Presiune Umiditate
    00:00 +36°C° 0 mm 4 m/s 735 mmHg 8%
    01:00 +35°C° 0 mm 3 m/s 735 mmHg 9%
    02:00 +34°C° 0 mm 3 m/s 735 mmHg 9%
    03:00 +32°C° 0 mm 2 m/s 735 mmHg 10%
    04:00 +31°C° 0 mm 2 m/s 735 mmHg 11%
    05:00 +30°C° 0 mm 1 m/s 735 mmHg 11%
    06:00 +32°C° 0 mm 1 m/s 736 mmHg 10%
    07:00 +34°C° 0 mm 1 m/s 736 mmHg 9%
    08:00 +37°C° 0 mm 1 m/s 737 mmHg 9%
    09:00 +40°C° 0 mm 2 m/s 737 mmHg 7%
    10:00 +44°C° 0 mm 3 m/s 737 mmHg 6%
    11:00 +47°C° 0 mm 4 m/s 737 mmHg 5%
    12:00 +48°C° 0 mm 4 m/s 736 mmHg 5%
    13:00 +49°C° 0 mm 5 m/s 736 mmHg 4%
    14:00 +51°C° 0 mm 6 m/s 735 mmHg 4%
    15:00 +49°C° 0 mm 5 m/s 735 mmHg 4%
    16:00 +48°C° 0 mm 5 m/s 734 mmHg 5%
    17:00 +48°C° 0 mm 5 m/s 734 mmHg 5%
    18:00 +45°C° 0 mm 4 m/s 734 mmHg 6%
    19:00 +43°C° 0 mm 3 m/s 735 mmHg 7%
    20:00 +40°C° 0 mm 2 m/s 735 mmHg 8%
    21:00 +39°C° 0 mm 2 m/s 735 mmHg 8%
    22:00 +38°C° 0 mm 2 m/s 735 mmHg 9%
    23:00 +37°C° 0 mm 2 m/s 735 mmHg 9%

    30 Aprilie, Marţi

    Timp Temperatura Precipitaţii Vânt Presiune Umiditate
    00:00 +36°C° 0 mm 2 m/s 735 mmHg 9%
    01:00 +35°C° 0 mm 2 m/s 734 mmHg 9%
    02:00 +35°C° 0 mm 2 m/s 734 mmHg 9%
    03:00 +34°C° 0 mm 2 m/s 734 mmHg 9%
    04:00 +32°C° 0 mm 2 m/s 734 mmHg 10%
    05:00 +31°C° 0 mm 2 m/s 734 mmHg 10%
    06:00 +34°C° 0 mm 2 m/s 735 mmHg 9%
    07:00 +37°C° 0 mm 3 m/s 736 mmHg 8%
    08:00 +39°C° 0 mm 3 m/s 736 mmHg 7%
    09:00 +42°C° 0 mm 3 m/s 736 mmHg 6%
    10:00 +44°C° 0 mm 4 m/s 736 mmHg 6%
    11:00 +48°C° 0 mm 4 m/s 736 mmHg 5%
    12:00 +48°C° 0 mm 4 m/s 735 mmHg 5%
    13:00 +48°C° 0 mm 3 m/s 734 mmHg 5%
    14:00 +48°C° 0 mm 3 m/s 733 mmHg 4%
    15:00 +48°C° 0 mm 2 m/s 733 mmHg 4%
    16:00 +48°C° 0 mm 2 m/s 732 mmHg 4%
    17:00 +47°C° 0 mm 2 m/s 732 mmHg 4%
    18:00 +45°C° 0 mm 2 m/s 732 mmHg 5%
    19:00 +42°C° 0 mm 2 m/s 733 mmHg 6%
    20:00 +40°C° 0 mm 3 m/s 733 mmHg 7%
    21:00 +39°C° 0 mm 3 m/s 733 mmHg 7%
    22:00 +38°C° 0 mm 3 m/s 733 mmHg 8%
    23:00 +36°C° 0 mm 3 m/s 733 mmHg 8%

    1 Mai, Miercuri

    Timp Temperatura Precipitaţii Vânt Presiune Umiditate
    00:00 +36°C° 0 mm 3 m/s 733 mmHg 9%
    01:00 +35°C° 0 mm 3 m/s 733 mmHg 9%
    02:00 +34°C° 0 mm 3 m/s 732 mmHg 10%
    03:00 +34°C° 0 mm 2 m/s 732 mmHg 11%
    04:00 +32°C° 0 mm 2 m/s 733 mmHg 11%
    05:00 +31°C° 0 mm 2 m/s 733 mmHg 12%
    06:00 +34°C° 0 mm 3 m/s 733 mmHg 11%
    07:00 +36°C° 0 mm 3 m/s 734 mmHg 10%
    08:00 +40°C° 0 mm 4 m/s 735 mmHg 10%
    09:00 +42°C° 0 mm 4 m/s 735 mmHg 9%
    10:00 +45°C° 0 mm 5 m/s 734 mmHg 8%
    11:00 +47°C° 0 mm 5 m/s 734 mmHg 7%
    12:00 +48°C° 0 mm 5 m/s 734 mmHg 7%
    13:00 +48°C° 0 mm 4 m/s 733 mmHg 7%
    14:00 +48°C° 0 mm 3 m/s 732 mmHg 6%
    15:00 +48°C° 0 mm 3 m/s 732 mmHg 6%
    16:00 +48°C° 0 mm 3 m/s 731 mmHg 5%
    17:00 +47°C° 0 mm 3 m/s 731 mmHg 5%
    18:00 +45°C° 0 mm 2 m/s 732 mmHg 6%
    19:00 +42°C° 0 mm 1 m/s 732 mmHg 7%
    20:00 +37°C° 0 mm 0 m/s 732 mmHg 8%
    21:00 +39°C° 0 mm 1 m/s 733 mmHg 10%
    22:00 +38°C° 0 mm 2 m/s 733 mmHg 11%
    23:00 +37°C° 0 mm 2 m/s 733 mmHg 13%
    Arată mai mult